[[{"header":{"parameterUnit":"m.s-1","parameterCategory":1,"la1":30.2991,"la2":30.254,"lo1":-89.0895,"lo2":-89.0444,"dy":0.0017,"dx":0.0017,"nx":28,"ny":28,"refTime":"2023-10-09T03:00:00:Z","depth":0,"parameterNumber":2,"parameterNumberName":"U-component_of_WINDS"},"data":[0,0,0,0,0,0,0,0,0,0,0,0,0,0,0,0,0,0,0,0,0,0,0,0,0,0,0,0,0,0,0,0,0,0,0,0,0,0,0,0,0,0,0,0,0,0,0,0,0,0,0,0,0,0,0,0,0,0,-1.2389,-1.239,0,-1.2487,-1.2488,-1.2489,-1.2502,-1.2501,-1.25,-1.2499,-1.2599,-1.2602,-1.2606,0,0,0,0,0,0,0,0,0,0,0,0,0,-1.2215,-1.2218,-1.2389,-1.239,-1.2392,-1.2487,-1.2488,-1.2489,-1.2502,-1.2501,-1.25,-1.2499,-1.2598,-1.2602,-1.2606,0,0,0,0,0,0,0,0,0,0,0,0,0,-1.2299,-1.2219,-1.2389,-1.241,-1.2412,-1.2486,-1.2488,-1.249,-1.2502,-1.2501,-1.25,-1.2498,-1.2596,-1.2602,-1.2607,-1.2667,0,0,-1.2623,-1.2625,0,0,0,0,0,0,0,0,-1.2294,-1.2305,-1.2405,-1.2408,-1.2412,-1.2481,-1.2463,-1.2549,-1.2503,-1.2468,-1.2499,-1.2498,-1.2561,-1.2569,-1.259,-1.2672,-1.2676,-1.2623,-1.2627,-1.2629,-1.263,0,0,0,0,0,0,0,-1.2288,-1.2301,-1.2428,-1.2407,-1.2411,-1.2414,-1.2424,-1.2479,-1.2521,-1.2471,-1.2472,-1.2484,-1.2562,-1.2585,-1.2593,-1.2677,-1.2623,-1.2628,-1.2631,-1.2633,-1.2814,-1.2815,0,0,0,0,0,0,-1.2279,-1.2296,-1.2425,-1.2431,-1.2348,-1.2418,-1.243,-1.246,-1.252,-1.2528,-1.2485,-1.2484,-1.2577,-1.2586,-1.2596,-1.2671,-1.2629,-1.2634,-1.2637,-1.2812,-1.2814,-1.2816,0,0,0,0,0,0,-1.2275,-1.229,-1.2421,-1.2364,-1.2381,-1.2423,-1.2456,-1.2463,-1.2485,-1.2531,-1.2538,-1.25,-1.2576,-1.2589,-1.2649,-1.2675,-1.2636,-1.2641,-1.281,-1.2813,-1.2815,-1.2821,0,0,0,0,0,0,-1.227,-1.2289,-1.2312,-1.2364,-1.2384,-1.2472,-1.2458,-1.2465,-1.2495,-1.2494,-1.2547,-1.2555,-1.2576,-1.2641,-1.2655,-1.2681,-1.2645,-1.2808,-1.2811,-1.2814,-1.2818,-1.2823,-1.2827,0,0,0,0,0,-1.2264,-1.2309,-1.2313,-1.2328,-1.2414,-1.2474,-1.2485,-1.2508,-1.2496,-1.252,-1.2549,-1.2553,-1.267,-1.2648,-1.2663,-1.2691,-1.2807,-1.281,-1.2814,-1.2816,-1.2822,-1.2827,0,0,0,0,0,0,-1.2259,-1.2317,-1.2321,-1.2385,-1.2425,-1.2476,-1.2506,-1.2513,-1.2556,-1.2554,-1.2581,-1.2593,-1.2653,-1.2678,-1.2652,-1.2753,-1.2737,-1.2744,-1.2734,-1.274,-1.2744,-1.2736,-1.2649,0,0,0,0,0,-1.2265,-1.2309,-1.2357,-1.2409,-1.2429,-1.2464,-1.2491,-1.2506,-1.2547,-1.2564,-1.2597,-1.2638,-1.2683,-1.2713,-1.2758,-1.2822,-1.2834,-1.2849,-1.2853,-1.2857,-1.2862,-1.2898,-1.2906,-1.2828,-1.2828,-1.2828,0,0,-1.2279,-1.2316,-1.2342,-1.2409,-1.2441,-1.2486,-1.2478,-1.2526,-1.2559,-1.2571,-1.263,-1.2657,-1.2703,-1.2766,-1.2796,-1.2789,-1.2886,-1.2861,-1.2864,-1.2867,-1.2903,-1.291,-1.2917,-1.283,-1.283,-1.283,0,0,-1.2326,-1.2359,-1.2406,-1.2438,-1.2487,-1.251,-1.2521,-1.2572,-1.259,-1.265,-1.266,-1.27,-1.2778,-1.2811,-1.2838,-1.2899,-1.2904,-1.2913,-1.2935,-1.297,-1.2976,-1.2981,-1.3003,-1.3011,-1.2918,-1.2918,-1.2918,0,-1.2337,-1.2405,-1.2429,-1.2477,-1.2506,-1.2519,-1.2567,-1.2597,-1.2658,-1.2678,-1.267,-1.2768,-1.2801,-1.2872,-1.2887,-1.2908,-1.2922,-1.2907,-1.2973,-1.2979,-1.2984,-1.3005,-1.3013,-1.2919,-1.2919,-1.2919,-1.2919,0,-1.2416,-1.2463,-1.2495,-1.2553,-1.2586,-1.2634,-1.2665,-1.2696,-1.2708,-1.2732,-1.2793,-1.2833,-1.2885,-1.2903,-1.2915,-1.2976,-1.2971,-1.2968,-1.2952,-1.2992,-1.3012,-1.302,-1.292,-1.292,-1.292,-1.2919,0,0,-1.2463,-1.2534,-1.2545,-1.2572,-1.2627,-1.2664,-1.2712,-1.2764,-1.279,-1.2831,-1.2872,-1.2938,-1.2936,-1.2967,-1.2983,-1.3013,-1.3059,-1.3007,-1.3008,-1.3015,-1.3128,-1.313,-1.3139,-1.3063,-1.3065,-1.3066,-1.3124,0,-1.2516,-1.2603,-1.2626,-1.2699,-1.2743,-1.2756,-1.2798,-1.2836,-1.286,-1.2901,-1.2928,-1.2974,-1.2968,-1.2986,-1.3017,-1.3047,-1.3082,-1.3043,-1.3101,-1.3103,-1.3089,-1.315,-1.3151,-1.3205,-1.3132,-1.3134,-1.3135,0,-1.2591,-1.2634,-1.2711,-1.2761,-1.278,-1.2817,-1.2867,-1.2906,-1.2949,-1.2965,-1.2999,-1.3012,-1.3063,-1.3046,-1.3116,-1.3089,-1.3115,-1.3133,-1.3135,-1.3141,-1.3121,-1.3157,-1.3222,-1.323,-1.3147,-1.3146,-1.3145,0,-1.2617,-1.2694,-1.2751,-1.2773,-1.2832,-1.2858,-1.2884,-1.2927,-1.2956,-1.3,-1.3019,-1.3068,-1.3095,-1.3132,-1.3158,-1.3143,-1.3227,-1.3211,-1.3241,-1.324,-1.3257,-1.3256,-1.3328,-1.3274,-1.3274,-1.3274,-1.3274,0,-1.2674,-1.2721,-1.2763,-1.2798,-1.2851,-1.2877,-1.2929,-1.2955,-1.2993,-1.3033,-1.3048,-1.3085,-1.3118,-1.3159,-1.318,-1.3235,-1.3247,-1.3261,-1.3266,-1.326,-1.3258,-1.3276,-1.3273,-1.3276,-1.3276,-1.3275,-1.3275,0,-1.2712,-1.2742,-1.2805,-1.2856,-1.287,-1.2906,-1.295,-1.2984,-1.3009,-1.306,-1.3073,-1.3112,-1.3162,-1.3192,-1.3255,-1.3269,-1.333,-1.3334,-1.3315,-1.3317,-1.3345,-1.3342,-1.3431,-1.3444,-1.3382,-1.3383,-1.3383,0,-1.2747,-1.2783,-1.2838,-1.2866,-1.2892,-1.2937,-1.2967,-1.2995,-1.3026,-1.3079,-1.3107,-1.3158,-1.32,-1.3279,-1.3313,-1.3362,-1.3367,-1.3394,-1.3374,-1.3366,-1.3367,-1.3364,-1.3368,-1.3398,-1.3398,-1.3399,-1.3399,0,-1.2805,-1.2818,-1.2861,-1.291,-1.2946,-1.2986,-1.3025,-1.3047,-1.3082,-1.3116,-1.3167,-1.32,-1.3265,-1.3315,-1.3367,-1.3393,-1.3402,-1.3405,-1.3415,-1.3408,-1.3396,-1.3403,-1.3324,-1.3403,-1.3403,-1.3402,-1.3402,-1.3402,-1.2842,-1.2875,-1.2919,-1.2967,-1.2999,-1.3036,-1.3071,-1.31,-1.3143,-1.3198,-1.3212,-1.3266,-1.3309,-1.3379,-1.3407,-1.345,-1.3445,-1.3459,-1.3462,-1.3465,-1.3466,-1.3389,-1.3459,-1.3459,-1.3459,-1.3459,-1.3459,0,-1.29,-1.2929,-1.2973,-1.3028,-1.3066,-1.3071,-1.3115,-1.3146,-1.3193,-1.3233,-1.3274,-1.3333,-1.3383,-1.3421,-1.3471,-1.3498,-1.3503,-1.351,-1.3508,-1.3514,-1.3467,-1.3454,-1.3505,-1.3505,-1.3505,-1.3505,-1.3505,-1.3505,-1.2935,-1.2991,-1.301,-1.3082,-1.3111,-1.3164,-1.3188,-1.3222,-1.3254,-1.332,-1.336,-1.3385,-1.3424,-1.3478,-1.3523,-1.3533,-1.3551,-1.3557,-1.3567,-1.3522,-1.3517,-1.3513,-1.35,-1.3561,-1.3561,-1.3611,-1.3612,-1.3612]},{"header":{"parameterUnit":"m.s-1","parameterCategory":1,"la1":30.2991,"la2":30.254,"lo1":-89.0895,"lo2":-89.0444,"dy":0.0017,"dx":0.0017,"nx":28,"ny":28,"refTime":"2023-10-09T03:00:00:Z","depth":0,"parameterNumber":3,"parameterNumberName":"V-component_of_WINDS"},"data":[0,0,0,0,0,0,0,0,0,0,0,0,0,0,0,0,0,0,0,0,0,0,0,0,0,0,0,0,0,0,0,0,0,0,0,0,0,0,0,0,0,0,0,0,0,0,0,0,0,0,0,0,0,0,0,0,0,0,-1.9419,-1.942,0,-1.9448,-1.9449,-1.9449,-1.9443,-1.9443,-1.9442,-1.9442,-1.947,-1.9472,-1.9473,0,0,0,0,0,0,0,0,0,0,0,0,0,-1.9358,-1.9359,-1.9419,-1.942,-1.942,-1.9448,-1.9449,-1.9449,-1.9444,-1.9443,-1.9442,-1.9442,-1.947,-1.9471,-1.9473,0,0,0,0,0,0,0,0,0,0,0,0,0,-1.9386,-1.936,-1.9419,-1.9421,-1.9421,-1.9448,-1.9449,-1.9449,-1.9444,-1.9443,-1.9442,-1.9441,-1.9469,-1.9471,-1.9473,-1.95,0,0,-1.9479,-1.948,0,0,0,0,0,0,0,0,-1.9384,-1.9388,-1.942,-1.9421,-1.9421,-1.9442,-1.9438,-1.9466,-1.9444,-1.9435,-1.9442,-1.9441,-1.9461,-1.9464,-1.9471,-1.9502,-1.9503,-1.9479,-1.948,-1.9481,-1.9481,0,0,0,0,0,0,0,-1.9382,-1.9387,-1.9431,-1.9421,-1.9421,-1.942,-1.9423,-1.9443,-1.9452,-1.9436,-1.9435,-1.9439,-1.9461,-1.9469,-1.9472,-1.9503,-1.9479,-1.9481,-1.9482,-1.9482,-1.9557,-1.9558,0,0,0,0,0,0,-1.938,-1.9385,-1.943,-1.9432,-1.94,-1.9421,-1.9425,-1.9436,-1.9452,-1.9454,-1.944,-1.9439,-1.9466,-1.9469,-1.9473,-1.9505,-1.9481,-1.9483,-1.9484,-1.9556,-1.9557,-1.9558,0,0,0,0,0,0,-1.9379,-1.9384,-1.9429,-1.9408,-1.9414,-1.9423,-1.9436,-1.9437,-1.9444,-1.9455,-1.9456,-1.9446,-1.9466,-1.947,-1.9493,-1.9506,-1.9484,-1.9485,-1.9555,-1.9557,-1.9558,-1.957,0,0,0,0,0,0,-1.9377,-1.9384,-1.9394,-1.9409,-1.9415,-1.945,-1.9436,-1.9438,-1.9448,-1.9447,-1.9461,-1.9463,-1.9466,-1.9491,-1.9495,-1.9508,-1.9487,-1.9554,-1.9556,-1.9557,-1.9568,-1.9571,-1.9574,0,0,0,0,0,-1.9375,-1.9396,-1.9395,-1.94,-1.9429,-1.945,-1.9454,-1.9457,-1.9449,-1.9459,-1.9466,-1.9462,-1.9504,-1.9493,-1.9498,-1.9512,-1.9553,-1.9555,-1.9557,-1.9567,-1.9571,-1.9574,0,0,0,0,0,0,-1.9383,-1.9398,-1.9397,-1.9424,-1.9436,-1.9449,-1.9463,-1.9461,-1.9475,-1.9473,-1.9476,-1.948,-1.9503,-1.951,-1.9498,-1.9538,-1.9527,-1.953,-1.9533,-1.9537,-1.954,-1.9537,-1.9488,0,0,0,0,0,-1.9388,-1.9405,-1.9417,-1.944,-1.9446,-1.9453,-1.9463,-1.9464,-1.9477,-1.9481,-1.949,-1.9502,-1.9517,-1.9528,-1.9543,-1.957,-1.9572,-1.9581,-1.9584,-1.9586,-1.9589,-1.9603,-1.9607,-1.9565,-1.9565,-1.9565,0,0,-1.9398,-1.9409,-1.9419,-1.9442,-1.9451,-1.9468,-1.9458,-1.9476,-1.9488,-1.9484,-1.9507,-1.9513,-1.9527,-1.9552,-1.9563,-1.9558,-1.9601,-1.9589,-1.9591,-1.9592,-1.9605,-1.9609,-1.9613,-1.9566,-1.9566,-1.9565,0,0,-1.9425,-1.9435,-1.9455,-1.9465,-1.9479,-1.9484,-1.9489,-1.9503,-1.9507,-1.953,-1.9527,-1.9542,-1.9569,-1.9578,-1.9587,-1.9618,-1.9615,-1.9623,-1.9637,-1.9651,-1.9654,-1.9657,-1.9667,-1.9671,-1.9625,-1.9625,-1.9625,0,-1.9436,-1.9462,-1.9465,-1.9484,-1.9493,-1.9491,-1.9511,-1.952,-1.9539,-1.9545,-1.9539,-1.9573,-1.9582,-1.9609,-1.9617,-1.9624,-1.9629,-1.9621,-1.9653,-1.9656,-1.9659,-1.9669,-1.9673,-1.9626,-1.9626,-1.9626,-1.9626,0,-1.9474,-1.9492,-1.9506,-1.9524,-1.9535,-1.9554,-1.956,-1.9571,-1.9572,-1.9577,-1.96,-1.9611,-1.9628,-1.9635,-1.9635,-1.9662,-1.9658,-1.9653,-1.9641,-1.9664,-1.9673,-1.9677,-1.9627,-1.9627,-1.9627,-1.9626,0,0,-1.9506,-1.9527,-1.9532,-1.954,-1.9556,-1.9569,-1.9588,-1.9605,-1.9614,-1.9627,-1.9642,-1.9665,-1.966,-1.967,-1.9672,-1.9684,-1.9707,-1.9677,-1.9677,-1.9682,-1.9736,-1.9739,-1.9743,-1.9705,-1.9706,-1.9707,-1.9734,0,-1.9534,-1.9568,-1.9571,-1.9601,-1.9617,-1.9615,-1.9631,-1.9642,-1.9648,-1.9662,-1.9668,-1.9684,-1.9677,-1.9683,-1.9695,-1.9701,-1.9718,-1.97,-1.9719,-1.9719,-1.9714,-1.9748,-1.9752,-1.9778,-1.9738,-1.9739,-1.9739,0,-1.9571,-1.9586,-1.9617,-1.963,-1.9637,-1.9651,-1.9667,-1.9681,-1.9693,-1.9697,-1.9707,-1.9707,-1.9726,-1.9715,-1.9741,-1.9728,-1.9736,-1.9741,-1.9742,-1.9743,-1.973,-1.975,-1.9786,-1.979,-1.9745,-1.9745,-1.9744,0,-1.9591,-1.9618,-1.964,-1.9647,-1.9663,-1.9673,-1.9681,-1.9693,-1.9703,-1.9716,-1.9722,-1.9738,-1.9746,-1.9758,-1.9763,-1.9754,-1.9788,-1.9777,-1.979,-1.979,-1.9797,-1.9796,-1.9834,-1.9803,-1.9803,-1.9803,-1.9803,0,-1.9621,-1.964,-1.9649,-1.9662,-1.9683,-1.9687,-1.9708,-1.9714,-1.9725,-1.9739,-1.9739,-1.9752,-1.9758,-1.9772,-1.9775,-1.9795,-1.9799,-1.9802,-1.9803,-1.9802,-1.9801,-1.9806,-1.9804,-1.9804,-1.9804,-1.9804,-1.9804,0,-1.9646,-1.9653,-1.9677,-1.969,-1.9694,-1.9709,-1.972,-1.9733,-1.9739,-1.9757,-1.9761,-1.977,-1.9786,-1.9792,-1.9812,-1.9815,-1.9838,-1.9837,-1.9834,-1.9833,-1.9846,-1.9845,-1.9888,-1.9894,-1.986,-1.9861,-1.9861,0,-1.9665,-1.9679,-1.9695,-1.9704,-1.9712,-1.9728,-1.9738,-1.9742,-1.9753,-1.9768,-1.9779,-1.9796,-1.9809,-1.9836,-1.9843,-1.9859,-1.9858,-1.9872,-1.986,-1.9859,-1.9857,-1.9856,-1.9857,-1.9874,-1.9874,-1.9875,-1.9875,0,-1.9697,-1.9699,-1.9714,-1.973,-1.9742,-1.9754,-1.9767,-1.9774,-1.9781,-1.9793,-1.981,-1.982,-1.9841,-1.9857,-1.9873,-1.988,-1.9878,-1.9879,-1.9883,-1.9881,-1.9878,-1.9879,-1.9839,-1.9878,-1.9877,-1.9877,-1.9877,-1.9877,-1.9719,-1.9731,-1.9744,-1.976,-1.977,-1.9781,-1.9793,-1.9801,-1.9815,-1.9832,-1.9834,-1.9852,-1.9865,-1.9886,-1.9893,-1.9908,-1.9903,-1.9909,-1.991,-1.9911,-1.9912,-1.9877,-1.9911,-1.991,-1.991,-1.991,-1.991,0,-1.975,-1.9758,-1.9773,-1.979,-1.9802,-1.9801,-1.9814,-1.9824,-1.9841,-1.9852,-1.9865,-1.9885,-1.9901,-1.991,-1.9926,-1.9935,-1.9935,-1.9939,-1.9938,-1.9939,-1.9915,-1.991,-1.9939,-1.9939,-1.9939,-1.9939,-1.9939,-1.9939,-1.9767,-1.9788,-1.9792,-1.9818,-1.9826,-1.9844,-1.9851,-1.9862,-1.9871,-1.9893,-1.9906,-1.9912,-1.9922,-1.9939,-1.9953,-1.9955,-1.9961,-1.9965,-1.9967,-1.9944,-1.9941,-1.9938,-1.9933,-1.9967,-1.9967,-1.999,-1.999,-1.999]}]]